[[{"header":{"parameterUnit":"m.s-1","parameterCategory":1,"la1":30.2991,"la2":30.254,"lo1":-89.0895,"lo2":-89.0444,"dy":0.0017,"dx":0.0017,"nx":28,"ny":28,"refTime":"2025-08-27T09:00:00:Z","depth":0,"parameterNumber":2,"parameterNumberName":"U-component_of_WINDS"},"data":[0,0,0,0,0,0,0,0,0,0,0,0,0,0,0,0,0,0,0,0,0,0,0,0,0,0,0,0,0,0,0,0,0,0,0,0,0,0,0,0,0,0,0,0,0,0,0,0,0,0,0,0,0,0,0,0,0,0,-1.3772,-1.3774,0,-1.3997,-1.3999,-1.4002,-1.4105,-1.4104,-1.4104,-1.4104,-1.4337,-1.4343,-1.435,0,0,0,0,0,0,0,0,0,0,0,0,0,-1.3433,-1.3438,-1.3772,-1.3775,-1.3777,-1.3996,-1.3999,-1.4002,-1.4105,-1.4104,-1.4104,-1.4104,-1.4335,-1.4343,-1.435,0,0,0,0,0,0,0,0,0,0,0,0,0,-1.3611,-1.344,-1.3771,-1.3855,-1.3864,-1.3996,-1.3999,-1.4003,-1.4105,-1.4104,-1.4104,-1.4104,-1.4333,-1.4342,-1.4351,-1.4417,0,0,-1.4381,-1.4385,0,0,0,0,0,0,0,0,-1.3601,-1.3623,-1.384,-1.3849,-1.386,-1.4022,-1.3965,-1.4142,-1.4105,-1.4014,-1.4104,-1.4104,-1.4233,-1.4251,-1.4294,-1.4428,-1.4438,-1.4382,-1.4388,-1.4392,-1.4394,0,0,0,0,0,0,0,-1.3588,-1.3614,-1.3861,-1.3843,-1.3855,-1.3881,-1.3906,-1.3999,-1.4122,-1.4022,-1.4029,-1.4055,-1.4239,-1.4284,-1.43,-1.4442,-1.4381,-1.439,-1.4396,-1.44,-1.4641,-1.4641,0,0,0,0,0,0,-1.3562,-1.3603,-1.3854,-1.3868,-1.3727,-1.3888,-1.3916,-1.3971,-1.4122,-1.4144,-1.4055,-1.4058,-1.4268,-1.4289,-1.4308,-1.4395,-1.4392,-1.4401,-1.4406,-1.464,-1.4641,-1.4641,0,0,0,0,0,0,-1.3554,-1.3583,-1.3845,-1.3738,-1.3773,-1.3894,-1.3955,-1.3975,-1.4021,-1.4147,-1.4169,-1.4078,-1.4268,-1.4295,-1.4389,-1.4405,-1.4405,-1.4414,-1.4639,-1.464,-1.4641,-1.4569,0,0,0,0,0,0,-1.3544,-1.358,-1.3606,-1.3737,-1.3778,-1.3921,-1.3956,-1.398,-1.4037,-1.4044,-1.4175,-1.4197,-1.427,-1.4374,-1.4399,-1.4418,-1.4421,-1.4638,-1.464,-1.4641,-1.4571,-1.4567,-1.4565,0,0,0,0,0,-1.3531,-1.3578,-1.3607,-1.3637,-1.3813,-1.3922,-1.3945,-1.4028,-1.4038,-1.4065,-1.4145,-1.4192,-1.4398,-1.4383,-1.4411,-1.4434,-1.4638,-1.4639,-1.4641,-1.4572,-1.4568,-1.4565,0,0,0,0,0,0,-1.3447,-1.3597,-1.3631,-1.3721,-1.3807,-1.3939,-1.3976,-1.4021,-1.4108,-1.4111,-1.4211,-1.424,-1.4325,-1.4389,-1.4369,-1.4505,-1.4522,-1.4529,-1.446,-1.4458,-1.4455,-1.4438,-1.4429,0,0,0,0,0,-1.3438,-1.3513,-1.364,-1.3707,-1.3749,-1.3854,-1.3905,-1.3961,-1.4055,-1.4093,-1.418,-1.4271,-1.4356,-1.441,-1.4496,-1.458,-1.461,-1.4609,-1.4606,-1.4603,-1.4608,-1.4657,-1.4658,-1.4646,-1.4646,-1.4646,0,0,-1.3423,-1.3513,-1.3555,-1.3693,-1.3767,-1.3842,-1.3885,-1.3963,-1.4021,-1.4105,-1.4199,-1.4266,-1.4374,-1.4462,-1.4506,-1.4518,-1.4618,-1.4605,-1.4601,-1.4609,-1.4658,-1.4659,-1.466,-1.4647,-1.4647,-1.4647,0,0,-1.3432,-1.3508,-1.3572,-1.3644,-1.3755,-1.3824,-1.3839,-1.3963,-1.401,-1.4105,-1.417,-1.424,-1.4385,-1.4458,-1.4514,-1.4548,-1.4594,-1.4573,-1.4558,-1.4604,-1.4605,-1.4606,-1.4618,-1.4622,-1.4578,-1.4578,-1.4578,0,-1.3399,-1.3514,-1.3599,-1.3673,-1.3732,-1.381,-1.3875,-1.3942,-1.4074,-1.4113,-1.4124,-1.4306,-1.4385,-1.4491,-1.4499,-1.4542,-1.4562,-1.456,-1.4598,-1.46,-1.4603,-1.4615,-1.4619,-1.4574,-1.4575,-1.4575,-1.4575,0,-1.3467,-1.3546,-1.3584,-1.3709,-1.3771,-1.3841,-1.3936,-1.399,-1.4039,-1.4107,-1.4203,-1.4298,-1.4404,-1.4433,-1.4483,-1.4547,-1.4551,-1.4578,-1.4598,-1.4599,-1.4612,-1.4618,-1.457,-1.4571,-1.4572,-1.4573,0,0,-1.3432,-1.36,-1.3613,-1.367,-1.3796,-1.3859,-1.3931,-1.4033,-1.4076,-1.4165,-1.4228,-1.4347,-1.4373,-1.4437,-1.4496,-1.4536,-1.4556,-1.4559,-1.4563,-1.4555,-1.4631,-1.461,-1.4614,-1.4586,-1.4587,-1.4588,-1.4622,0,-1.3459,-1.3591,-1.3668,-1.3769,-1.3843,-1.3916,-1.3979,-1.4064,-1.4128,-1.4201,-1.4273,-1.4356,-1.4384,-1.4422,-1.4465,-1.4544,-1.4572,-1.4543,-1.4647,-1.465,-1.4618,-1.4621,-1.46,-1.4627,-1.4628,-1.4629,-1.463,0,-1.3509,-1.3593,-1.37,-1.3816,-1.385,-1.3905,-1.4004,-1.4072,-1.4169,-1.4213,-1.4282,-1.4341,-1.442,-1.4432,-1.4542,-1.452,-1.4567,-1.4612,-1.4615,-1.4629,-1.464,-1.4636,-1.4638,-1.4642,-1.4639,-1.4638,-1.4637,0,-1.3472,-1.3613,-1.3695,-1.3741,-1.3879,-1.3915,-1.3975,-1.4071,-1.4126,-1.4213,-1.425,-1.4344,-1.4396,-1.4468,-1.455,-1.4551,-1.4653,-1.4672,-1.4693,-1.469,-1.4712,-1.471,-1.4722,-1.474,-1.474,-1.474,-1.474,0,-1.3494,-1.3557,-1.368,-1.3731,-1.3803,-1.3891,-1.396,-1.4025,-1.411,-1.4175,-1.4244,-1.4304,-1.4408,-1.4481,-1.4546,-1.4627,-1.465,-1.4689,-1.4705,-1.4683,-1.4678,-1.4716,-1.4717,-1.4741,-1.4741,-1.4741,-1.4741,0,-1.3466,-1.3551,-1.3645,-1.3767,-1.3799,-1.3846,-1.3951,-1.4003,-1.407,-1.4151,-1.4175,-1.4281,-1.437,-1.4459,-1.4579,-1.4622,-1.4703,-1.4725,-1.467,-1.4679,-1.4695,-1.4692,-1.4733,-1.4743,-1.4753,-1.4753,-1.4752,0,-1.3475,-1.3525,-1.3651,-1.3698,-1.3755,-1.3831,-1.3888,-1.3976,-1.4032,-1.4144,-1.4182,-1.4276,-1.4355,-1.4493,-1.4582,-1.4674,-1.4699,-1.4707,-1.4714,-1.4689,-1.47,-1.4696,-1.4702,-1.4704,-1.4704,-1.4703,-1.4703,0,-1.3482,-1.3521,-1.3599,-1.3691,-1.3755,-1.3833,-1.3913,-1.3948,-1.4051,-1.411,-1.4201,-1.4262,-1.4383,-1.4475,-1.4577,-1.4639,-1.4689,-1.47,-1.471,-1.4688,-1.4654,-1.4673,-1.4662,-1.4699,-1.4699,-1.47,-1.47,-1.47,-1.3474,-1.3521,-1.3616,-1.37,-1.3768,-1.3841,-1.3895,-1.3968,-1.4045,-1.4149,-1.4197,-1.4287,-1.4382,-1.4523,-1.4584,-1.4657,-1.467,-1.4684,-1.4688,-1.4691,-1.4685,-1.4641,-1.4676,-1.4676,-1.4676,-1.4677,-1.4677,0,-1.3484,-1.3548,-1.3625,-1.3733,-1.3799,-1.3837,-1.3927,-1.398,-1.4058,-1.4141,-1.4217,-1.4321,-1.441,-1.4504,-1.4599,-1.4639,-1.4664,-1.4661,-1.466,-1.4673,-1.4668,-1.465,-1.4639,-1.4639,-1.4639,-1.4639,-1.4639,-1.4639,-1.3498,-1.3579,-1.3628,-1.3744,-1.3809,-1.3897,-1.3945,-1.4012,-1.4079,-1.419,-1.4264,-1.4324,-1.4412,-1.4513,-1.4597,-1.4622,-1.4654,-1.4645,-1.4677,-1.4671,-1.4673,-1.4676,-1.466,-1.4651,-1.4651,-1.4676,-1.4676,-1.4676]},{"header":{"parameterUnit":"m.s-1","parameterCategory":1,"la1":30.2991,"la2":30.254,"lo1":-89.0895,"lo2":-89.0444,"dy":0.0017,"dx":0.0017,"nx":28,"ny":28,"refTime":"2025-08-27T09:00:00:Z","depth":0,"parameterNumber":3,"parameterNumberName":"V-component_of_WINDS"},"data":[0,0,0,0,0,0,0,0,0,0,0,0,0,0,0,0,0,0,0,0,0,0,0,0,0,0,0,0,0,0,0,0,0,0,0,0,0,0,0,0,0,0,0,0,0,0,0,0,0,0,0,0,0,0,0,0,0,0,-1.8085,-1.8084,0,-1.8026,-1.8025,-1.8025,-1.7967,-1.7966,-1.7966,-1.7965,-1.7902,-1.7901,-1.79,0,0,0,0,0,0,0,0,0,0,0,0,0,-1.8146,-1.8145,-1.8085,-1.8084,-1.8084,-1.8026,-1.8025,-1.8024,-1.7967,-1.7966,-1.7965,-1.7965,-1.7903,-1.7902,-1.79,0,0,0,0,0,0,0,0,0,0,0,0,0,-1.8107,-1.8145,-1.8085,-1.8048,-1.8044,-1.8026,-1.8025,-1.8024,-1.7967,-1.7966,-1.7965,-1.7964,-1.7903,-1.7902,-1.79,-1.7913,0,0,-1.7896,-1.7895,0,0,0,0,0,0,0,0,-1.8109,-1.8104,-1.8054,-1.8051,-1.8046,-1.8003,-1.8024,-1.7987,-1.7968,-1.7997,-1.7965,-1.7964,-1.7937,-1.7932,-1.7924,-1.791,-1.7908,-1.7896,-1.7895,-1.7894,-1.7894,0,0,0,0,0,0,0,-1.8112,-1.8107,-1.8062,-1.8054,-1.8049,-1.8034,-1.8027,-1.8016,-1.7973,-1.7994,-1.799,-1.7984,-1.7934,-1.7925,-1.7922,-1.7907,-1.7896,-1.7894,-1.7893,-1.7893,-1.79,-1.7901,0,0,0,0,0,0,-1.812,-1.8109,-1.8064,-1.806,-1.8076,-1.8034,-1.8026,-1.8018,-1.7973,-1.7966,-1.7985,-1.7981,-1.7928,-1.7923,-1.7919,-1.793,-1.7894,-1.7893,-1.7892,-1.7899,-1.79,-1.7901,0,0,0,0,0,0,-1.8122,-1.8117,-1.8066,-1.8083,-1.8076,-1.8034,-1.8025,-1.8017,-1.8008,-1.7966,-1.7958,-1.7983,-1.7927,-1.7921,-1.7915,-1.7927,-1.7892,-1.7891,-1.7897,-1.7899,-1.79,-1.7954,0,0,0,0,0,0,-1.8124,-1.8118,-1.8123,-1.8084,-1.8075,-1.8064,-1.8026,-1.8017,-1.8006,-1.8001,-1.7963,-1.7956,-1.7926,-1.7918,-1.7914,-1.7925,-1.789,-1.7896,-1.7898,-1.79,-1.7951,-1.7957,-1.7963,0,0,0,0,0,-1.8126,-1.814,-1.8124,-1.8118,-1.8081,-1.8065,-1.8059,-1.8025,-1.8007,-1.8012,-1.7985,-1.7957,-1.7927,-1.7917,-1.7912,-1.7923,-1.7895,-1.7898,-1.79,-1.7948,-1.7956,-1.7962,0,0,0,0,0,0,-1.8181,-1.8134,-1.8115,-1.8117,-1.8095,-1.8055,-1.8059,-1.8035,-1.8017,-1.8013,-1.797,-1.7962,-1.7961,-1.7941,-1.7931,-1.7933,-1.7907,-1.7909,-1.7946,-1.7953,-1.7958,-1.7962,-1.7888,0,0,0,0,0,-1.8194,-1.8185,-1.8144,-1.815,-1.814,-1.8102,-1.8094,-1.8069,-1.8044,-1.8035,-1.8007,-1.7984,-1.7968,-1.796,-1.7944,-1.7948,-1.7938,-1.7953,-1.7959,-1.7964,-1.7965,-1.7965,-1.7971,-1.7909,-1.7909,-1.7909,0,0,-1.8219,-1.8193,-1.819,-1.816,-1.8141,-1.8132,-1.8094,-1.8087,-1.8079,-1.8033,-1.8025,-1.8004,-1.7975,-1.7974,-1.7972,-1.7958,-1.798,-1.7967,-1.7971,-1.797,-1.7968,-1.7974,-1.7979,-1.791,-1.791,-1.791,0,0,-1.8261,-1.8241,-1.8242,-1.8223,-1.8194,-1.8168,-1.8169,-1.8132,-1.8116,-1.8108,-1.8072,-1.8063,-1.8038,-1.8018,-1.8005,-1.8039,-1.8012,-1.8035,-1.8065,-1.8065,-1.807,-1.8074,-1.8084,-1.8089,-1.8037,-1.8037,-1.8037,0,-1.8296,-1.8282,-1.8246,-1.8241,-1.8228,-1.8186,-1.8187,-1.817,-1.8137,-1.8129,-1.8114,-1.8081,-1.8059,-1.8052,-1.806,-1.8051,-1.8049,-1.8039,-1.8072,-1.8076,-1.8079,-1.8089,-1.8093,-1.804,-1.8039,-1.8039,-1.8039,0,-1.8326,-1.8317,-1.8322,-1.8291,-1.8279,-1.8277,-1.824,-1.8232,-1.8208,-1.8184,-1.8175,-1.8147,-1.8124,-1.8121,-1.8098,-1.811,-1.8102,-1.808,-1.8053,-1.8088,-1.8097,-1.81,-1.8044,-1.8043,-1.8042,-1.8041,0,0,-1.84,-1.835,-1.8352,-1.8337,-1.8301,-1.8293,-1.8288,-1.8266,-1.826,-1.8238,-1.8232,-1.8212,-1.8191,-1.8177,-1.8151,-1.8151,-1.8178,-1.8129,-1.8127,-1.8138,-1.8188,-1.8204,-1.8209,-1.816,-1.8161,-1.8161,-1.819,0,-1.8435,-1.8425,-1.8392,-1.8391,-1.8381,-1.8341,-1.8337,-1.8314,-1.8291,-1.8279,-1.8253,-1.8239,-1.8214,-1.8204,-1.8203,-1.8175,-1.8187,-1.8172,-1.8153,-1.8153,-1.816,-1.8213,-1.823,-1.8258,-1.8193,-1.8193,-1.8194,0,-1.8474,-1.8455,-1.8453,-1.8417,-1.8412,-1.8409,-1.8385,-1.8374,-1.8347,-1.833,-1.8313,-1.8285,-1.8276,-1.8252,-1.8239,-1.823,-1.822,-1.8205,-1.8205,-1.8201,-1.8175,-1.8209,-1.8267,-1.8271,-1.8199,-1.8198,-1.8198,0,-1.8527,-1.8501,-1.8496,-1.8485,-1.8443,-1.8441,-1.8423,-1.8395,-1.8384,-1.8363,-1.8355,-1.8334,-1.8322,-1.8305,-1.8271,-1.8257,-1.8261,-1.8234,-1.8246,-1.8247,-1.8248,-1.8248,-1.8303,-1.8244,-1.8244,-1.8243,-1.8243,0,-1.8568,-1.8568,-1.8519,-1.8516,-1.8515,-1.8477,-1.8477,-1.8455,-1.843,-1.8421,-1.8386,-1.8378,-1.8334,-1.8321,-1.8294,-1.8287,-1.8282,-1.8267,-1.826,-1.8269,-1.8271,-1.8262,-1.8258,-1.8245,-1.8244,-1.8244,-1.8244,0,-1.8626,-1.8594,-1.8586,-1.8547,-1.8537,-1.8538,-1.8503,-1.8498,-1.8473,-1.8463,-1.8458,-1.8418,-1.8401,-1.8366,-1.8339,-1.832,-1.8319,-1.8307,-1.8328,-1.8323,-1.8336,-1.8335,-1.8387,-1.8391,-1.833,-1.833,-1.8331,0,-1.8654,-1.8654,-1.8615,-1.8606,-1.859,-1.8578,-1.8566,-1.8528,-1.8517,-1.8486,-1.8484,-1.8464,-1.8446,-1.842,-1.8388,-1.8367,-1.8353,-1.8373,-1.835,-1.8359,-1.8352,-1.8352,-1.8351,-1.8378,-1.8379,-1.8379,-1.838,0,-1.8707,-1.8691,-1.8676,-1.8655,-1.8642,-1.8623,-1.8603,-1.8598,-1.8555,-1.8544,-1.8527,-1.8513,-1.8485,-1.8465,-1.8439,-1.8419,-1.8392,-1.8387,-1.8389,-1.8398,-1.841,-1.8403,-1.8341,-1.8386,-1.8386,-1.8385,-1.8385,-1.8384,-1.875,-1.8747,-1.8719,-1.8703,-1.8684,-1.8665,-1.8658,-1.8633,-1.8617,-1.8592,-1.8571,-1.8555,-1.8526,-1.8488,-1.847,-1.8456,-1.8443,-1.8445,-1.8446,-1.8447,-1.845,-1.8414,-1.8452,-1.8451,-1.8451,-1.8451,-1.8451,0,-1.88,-1.878,-1.8766,-1.8738,-1.8725,-1.8702,-1.8677,-1.8668,-1.8654,-1.863,-1.8614,-1.8592,-1.8573,-1.8539,-1.8517,-1.8512,-1.8498,-1.8507,-1.8506,-1.8502,-1.8464,-1.8465,-1.8518,-1.8518,-1.8518,-1.8518,-1.8518,-1.8518,-1.8824,-1.8818,-1.8798,-1.8781,-1.8761,-1.8745,-1.8733,-1.8716,-1.8696,-1.8675,-1.8658,-1.8637,-1.8609,-1.8584,-1.8564,-1.8555,-1.8547,-1.856,-1.8546,-1.8511,-1.8505,-1.8499,-1.8499,-1.8559,-1.8559,-1.8585,-1.8585,-1.8585]}]]